View from above orbital plane
|
View from above satellite
|
Ground track
|
The orbit data is extracted from the following two-line orbital elements,
1 23087U 94023A 21019.74918665 -.00000246 00000-0 -10496-3 0 9994
2 23087 71.0550 135.5574 0009028 353.4306 6.6696 14.13822803379760
Epoch (UTC): | 19 January 2021 17:58:49 |
Eccentricity: | 0.0009028 |
inclination: | 71.0550° |
perigee height: | 840 km |
apogee height: | 853 km |
right ascension of ascending node: | 135.5574° |
argument of perigee: | 353.4306° |
revolutions per day: | 14.13822803 |
mean anomaly at epoch: | 6.6696° |
orbit number at epoch: | 37976 |
The dashed part of the orbit path shows where the satellite is in the earth's shadow,
|
|